OBJECT G, 59779

Orbit data source: Space-Track

You're viewing an Uncataloged Satellite

Recently launched and/or uncataloged satellites may have evolving metadata. Metadata may include but not limited to: Owner, Maufacturer, Bus, Motor, and Mission.

OBJECT G, 59779 is a satellite owned by Byuro 1440 (CIS) in SSO that was launched on Thu, 16 May 2024 UTC via a SOYUZ-2-1B launch vehicle from the Plesetsk Missile And Space Complex (PKMTR). Unknown objects in Earth's orbit typically refer to objects detected orbiting the Earth but have not yet been identified or cataloged. These objects could be anything from previously untracked satellites, spent rocket stages, debris from satellite collisions, or even natural meteoroids temporarily captured by Earth's gravity.

Loading next visibility...
Identifier
59779, 2024-092G
Orbit
SSO
Last TLE update
20 hours ago
Origin
Manufacturer
Byuro 1440
Mission
Operational spacecraft
Bus & Motor
RASSVET-2, Unknown motor
Mass
~200 kg wet, ~200 kg dry
Launch date (UTC)
2024-05-16 (11 months ago)
Launch vehicle
SOYUZ-2-1B
Launch site
Plesetsk Missile And Space Complex (PKMTR)
Object type
Unknown
Shape & HBR
Unknown
Radar Cross Section
Large (>1 m²)

Expand to show TLE details & history

TLE from 20 hours ago
0 OBJECT G
1 59779U 24092G   25119.22085063  .00000433  00000-0  17922-3 0  9992
2 59779  98.6305 234.7171 0011880 353.0825   7.0192 14.31589599 49667
Epoch: 2025-04-29T05:18Z
Definitive object data (Epoch: 2025-04-29T05:18:01.494Z)
Latitude
-0.00005°
Longitude
-62.21276°
Altitude
780.906 km
Speed
7.468 km/s
True Right ascension
15h 38m 52s
True Declination
0° 00' 00"
Sunlit
Object was in full shadow at TLE epoch
Visualization TLE readout
Latitude
-8.60084°
Longitude
-60.07247°
Altitude
782.36 km
Speed
7.467 km/s
Apparent Right ascension
17h 48m 36s
Apparent Declination
-28° 28' 49"
Sunlit
Object is in full shadow
Visualization observer readout
Local Sidereal Time
08:55:52
Azimuth
88.191° E
Elevation
-50.117°
Doppler factor
1
Orbital elements
Apogee altitude
792.07 km
Perigee altitude
775.054 km
Semi-major axis
7,161.699 km
Eccentricity
0.001188
Inclination
98.6305°
RAAN
234.7171°
Arg. of periapsis
353.0825°
True anomaly
7.03586°
Mean anomaly
7.0192°
Eccentric anomaly
7.02753°
Mean motion
3.58112 °/min
BSTAR
0.00017922
Orbital period
100.53 mins
Loading maneuver chart data...
Loading SW <> Apogee altitude chart data...
Loading historical data...
Loading historical data...
Loading historical data...
Loading historical data...
Loading historical data...
Loading historical data...
Loading historical data...

OBJECT G Visibility forecast

Observer location: undefined°, undefined°

Span
Click to sort rows by Start time (UTC) header in descending order
Start Az.
Max El. time (UTC)
Max El. Az.
Max El.
End time (UTC)
End Az.
7 mins2025-04-30 06:36:21.009Z116.202° SE2025-04-30 06:40:21.009Z59.633° ENE22.823°2025-04-30 06:43:21.009Z18.266° NNE
7 mins2025-04-30 08:16:21.009Z206.582° SW2025-04-30 08:19:21.009Z266.215° W31.757°2025-04-30 08:23:21.009Z326.985° NNW
8 mins2025-04-30 20:28:21.009Z18.25° NNE2025-04-30 20:32:21.009Z154.021° SSE43.552°2025-04-30 20:36:21.009Z189.277° SSW
|